Track NAVSTAR 77 (USA 289) now! NAVSTAR 77 (USA 289) is classified as:
1 43873U 18109A 21025.52694101 .00000037 00000-0 00000-0 0 9992 2 43873 55.0236 169.9379 0011178 197.5140 98.2197 2.00572637 15629